Torna al catalogo

STARLINK-34788

AttivoComunicazioniSSO
NORAD 65056·PAYLOAD·🇺🇸 United States

Lanciato Jul 31, 2025 da Vandenberg Space Force Base

Loading…

Prossimi Passaggi (prossime 24 ore)

TLE

AggiornatoSource: CelesTrak SupGP

Epoca: Sep 14, 2026, 21:12 UTC

1 65056C 25165A   26257.88381944  .02081800  00000+0  84484-1 0  2572
2 65056  97.2846 329.1808 0001822  91.1035 302.9747 15.23628698    16

Traccia STARLINK-34788 in tempo reale con AllMySat

Download on the App Store